Weather History for Rhinelander, WI

Change the Weather History Date:

Friday, November 30, 2012

  Actual Average Record
Temperature  
Mean Temperature 26 °F 23 °F  
Max Temperature 29 °F 30 °F 58 °F (1998)
Min Temperature 22 °F 15 °F -16 °F (1976)
Degree Days  
Heating Degree Days 39 42  
Month to date heating degree days 999 1041  
Since 1 July heating degree days 2120 2134  
Cooling Degree Days 0 0  
Month to date cooling degree days 0 0  
Year to date cooling degree days 373 261  
Moisture  
Dew Point 23 °F    
Average Humidity 86    
Maximum Humidity 100    
Minimum Humidity 71    
Precipitation  
Precipitation T in 0.06 in 0.75 in (1987)
Month to date precipitation 1.41 1.84  
Year to date precipitation 29.24 29.96  
Snow  
Snow 0.00 in - 5.00 in (1919)
Month to date snowfall 5.5  
Since 1 July snowfall 5.5  
Since 1 September snowfall 5.5  
Snow Depth 2.00 in    
Sea Level Pressure  
Sea Level Pressure 30.23 in    
Wind  
Wind Speed 9 mph (East)    
Max Wind Speed 16 mph    
Max Gust Speed 21 mph    
Visibility 6 miles    
Events Fog    
T = Trace of Precipitation, MM = Missing Value Source: NWS Daily Summary

Daily Weather History Graph

Daily Weather History Graph

Search for Another Location

Airport:

Trip Planner

Search our weather history database for the weather conditions in past years. The results will help you decide how hot, cold, wet, or windy it might be!

Date:

Astronomy

Nov. 30, 2012 Rise Set
Actual Time 7:17 AM CST 4:15 PM CST
Civil Twilight 6:43 AM CST 4:49 PM CST
Nautical Twilight 6:06 AM CST 5:26 PM CST
Astronomical Twilight 5:31 AM CST 6:02 PM CST
Moon 6:11 PM CST (11/30) 8:49 AM CST (11/30)
Length of Visible Light 10h 05m
Length of Day
8h 58m
Waning Gibbous, 96% of the Moon is Illuminated
Nov 30
Waning Gibbous
Dec 6
Last Quarter
Dec 13
New
Dec 19
First Quarter
Dec 28
Full

Hourly Weather History & Observations

Time (CST) Temp. Windchill Dew Point Humidity Pressure Visibility Wind Dir Wind Speed Gust Speed Precip Events Conditions
12:53 AM 21.9 °F 10.4 °F 19.9 °F 92% 30.27 in 8.0 mi East 11.5 mph - N/A   Overcast
1:53 AM 21.9 °F 11.0 °F 21.0 °F 96% 30.26 in 8.0 mi East 10.4 mph - N/A   Overcast
2:53 AM 21.9 °F 11.7 °F 19.9 °F 92% 30.26 in 9.0 mi ENE 9.2 mph - N/A   Overcast
3:53 AM 21.9 °F 12.5 °F 19.9 °F 92% 30.26 in 10.0 mi ENE 8.1 mph - N/A   Overcast
4:53 AM 21.9 °F 12.5 °F 19.0 °F 89% 30.26 in 10.0 mi NE 8.1 mph - N/A   Overcast
5:27 AM 21.2 °F 10.9 °F 17.6 °F 86% 30.18 in 10.0 mi ENE 9.2 mph - N/A   Overcast
5:41 AM 21.2 °F 9.5 °F 17.6 °F 86% 30.19 in 10.0 mi ENE 11.5 mph - N/A   Overcast
5:53 AM 21.9 °F 8.7 °F 16.0 °F 78% 30.27 in 10.0 mi East 15.0 mph - N/A   Overcast
6:53 AM 21.9 °F 13.4 °F 14.0 °F 72% 30.28 in 10.0 mi ENE 6.9 mph - N/A   Overcast
7:53 AM 21.9 °F 11.7 °F 14.0 °F 72% 30.30 in 10.0 mi East 9.2 mph - N/A   Overcast
8:53 AM 23.0 °F 12.4 °F 17.1 °F 78% 30.28 in 10.0 mi East 10.4 mph - N/A   Overcast
9:21 AM 23.0 °F 15.8 °F 17.6 °F 80% 30.23 in 10.0 mi NNE 5.8 mph - N/A   Overcast
9:53 AM 24.1 °F 15.2 °F 19.0 °F 81% 30.30 in 10.0 mi ENE 8.1 mph - N/A   Overcast
10:53 AM 24.1 °F 17.0 °F 21.9 °F 91% 30.29 in 9.0 mi Variable 5.8 mph - N/A   Overcast
11:49 AM 24.8 °F 14.6 °F 23.0 °F 93% 30.19 in 4.0 mi East 10.4 mph - N/A   Overcast
11:53 AM 25.0 °F 14.8 °F 23.0 °F 92% 30.27 in 3.0 mi East 10.4 mph - N/A   Overcast
12:53 PM 25.0 °F 14.8 °F 24.1 °F 96% 30.26 in 5.0 mi East 10.4 mph - N/A   Overcast
1:53 PM 26.1 °F 17.6 °F 24.1 °F 92% 30.28 in 7.0 mi East 8.1 mph - N/A   Overcast
2:53 PM 26.1 °F 16.8 °F 25.0 °F 96% 30.26 in 3.0 mi East 9.2 mph - N/A   Overcast
3:11 PM 26.6 °F 18.2 °F 24.8 °F 93% 30.17 in 2.5 mi East 8.1 mph - N/A   Overcast
3:38 PM 26.6 °F 20.0 °F 26.6 °F 100% 30.20 in 1.2 mi East 5.8 mph - N/A   Overcast
3:53 PM 27.0 °F 20.5 °F 26.1 °F 96% 30.29 in 1.2 mi East 5.8 mph - N/A   Overcast
4:36 PM 26.6 °F 18.2 °F 26.6 °F 100% 30.20 in 0.8 mi East 8.1 mph - N/A   Mist
4:53 PM 27.0 °F 18.0 °F 26.1 °F 96% 30.27 in 0.5 mi East 9.2 mph - N/A Fog Light Freezing Fog
5:53 PM 28.0 °F 18.6 °F 27.0 °F 96% 30.26 in 0.5 mi ESE 10.4 mph - N/A Fog Light Freezing Fog
6:53 PM 28.0 °F 20.8 °F 27.0 °F 96% 30.24 in 1.0 mi ESE 6.9 mph - N/A   Mist
7:24 PM 28.4 °F 19.7 °F 26.6 °F 93% 30.14 in 2.5 mi ESE 9.2 mph - N/A   Overcast
7:31 PM 28.4 °F 18.5 °F 26.6 °F 93% 30.14 in 4.0 mi ESE 11.5 mph - N/A   Overcast
7:53 PM 28.0 °F 21.7 °F 27.0 °F 96% 30.24 in 6.0 mi SE 5.8 mph 16.1 mph N/A   Overcast
8:53 PM 28.9 °F 22.8 °F 28.0 °F 96% 30.23 in 6.0 mi ESE 5.8 mph - N/A   Overcast
10:17 PM 28.4 °F 22.2 °F 28.4 °F 100% 30.16 in 2.5 mi SE 5.8 mph - N/A   Overcast
10:43 PM 28.4 °F 21.2 °F 28.4 °F 100% 30.16 in 1.8 mi SE 6.9 mph - N/A   Overcast
10:53 PM 28.9 °F 21.9 °F 28.0 °F 96% 30.24 in 2.0 mi SSE 6.9 mph - N/A   Overcast
11:40 PM 28.4 °F 20.4 °F 28.4 °F 100% 30.15 in 1.5 mi SSE 8.1 mph - N/A   Overcast
11:53 PM 28.9 °F 21.1 °F 28.0 °F 96% 30.21 in 1.2 mi SE 8.1 mph - N/A   Overcast